Theta_e
345 343 346 346 347 347 348 347 345 343 343 343 343 343 342 343 344 344 344 348 349 348 348 348 347 348 348 348 349 348 348 347 347 347 346 346 345 344 344 344 344 343 341 341 341 342 342 342 345 346 347 347 347 346 347 347 347 347 347 347 348 348 348 347 346 346 345 345 346 346 345 344 343 343 343 343 342 343 343 342 340 335 339 339 341
343 344 344 347 347 347 348 348 345 344 341 341 343 342 342 342 343 343 344 346 349 348 348 348 348 348 347 348 348 348 347 347 347 346 346 345 345 344 343 342 341 342 342 341 342 342 341 345 346 346 346 346 346 345 346 346 347 346 346 346 346 346 346 346 347 346 345 345 345 344 345 345 345 343 342 342 341 342 340 341 341 336 336 339 339
346 344 345 348 347 347 347 347 344 344 343 342 342 341 341 341 342 343 343 344 348 348 348 348 348 348 348 347 347 346 346 346 346 345 344 342 342 341 343 342 342 341 340 340 340 340 341 343 344 344 345 345 344 344 345 345 345 345 345 345 344 344 344 344 345 346 346 345 344 344 344 343 343 345 345 346 346 347 345 343 341 338 335 340 341
343 342 344 347 346 347 347 346 344 343 343 342 341 341 341 341 342 342 347 349 348 347 348 347 348 347 348 347 346 345 345 345 344 344 344 343 341 340 340 340 339 338 339 340 339 340 341 341 342 343 342 342 342 342 344 344 344 344 344 344 344 344 343 343 343 344 342 344 345 340 338 338 341 344 345 346 347 345 344 344 344 345 344 343 343
343 343 345 347 348 347 346 343 343 343 343 342 342 340 340 340 341 342 349 348 347 347 347 348 348 346 346 346 346 344 343 343 344 343 341 340 340 342 343 339 338 337 339 339 339 340 339 341 341 341 341 341 341 342 342 343 343 343 343 343 344 343 343 344 344 345 343 343 342 340 340 341 341 342 344 345 344 342 342 342 342 343 343 343 342
341 343 345 345 347 348 346 345 344 343 343 342 341 340 340 340 342 340 343 347 346 346 346 347 346 347 346 345 343 343 343 343 343 343 341 340 338 338 342 341 340 339 339 339 339 338 338 338 338 338 340 340 339 340 342 342 342 343 343 343 343 342 343 343 343 345 342 342 342 340 340 339 339 339 343 343 343 341 341 341 342 342 342 342 342
342 343 344 344 345 346 345 345 344 343 342 342 341 341 340 341 341 340 342 346 345 345 347 346 346 346 347 346 346 345 343 342 342 341 339 338 339 340 340 341 341 341 339 340 340 340 338 337 337 338 337 337 337 339 340 340 341 342 343 343 342 342 342 342 342 342 343 338 339 339 339 340 339 339 342 342 343 341 340 341 341 341 341 341 341
342 343 345 345 345 345 344 344 344 343 343 342 341 340 340 341 342 341 342 346 345 345 346 346 346 346 346 344 343 341 340 340 340 340 339 339 338 338 342 342 342 341 338 338 338 338 338 338 338 338 338 338 339 339 340 340 340 342 342 342 341 341 342 342 343 340 340 338 340 339 339 339 339 338 341 341 341 340 340 339 338 338 338 338 337
341 341 343 344 346 343 345 345 344 343 343 342 341 341 341 340 341 340 343 345 345 344 345 346 346 346 345 342 340 340 341 340 340 338 337 337 337 338 339 340 340 340 340 339 338 338 338 338 338 339 338 339 338 339 339 339 339 342 342 341 341 341 340 340 341 340 336 337 337 338 338 336 336 335 338 339 339 339 339 337 336 336 336 337 335
338 341 344 346 347 342 346 346 344 343 343 343 342 341 341 341 341 340 341 343 344 344 344 345 345 345 344 341 340 339 339 339 338 338 337 337 336 338 338 339 339 340 341 342 341 340 338 338 339 338 338 339 338 339 338 339 339 340 341 341 340 340 340 341 340 338 335 336 336 335 335 338 335 334 336 337 337 337 335 333 334 333 334 334 334
338 340 345 345 347 341 346 346 344 343 342 342 342 342 341 340 340 339 339 340 340 344 345 345 345 345 344 341 339 339 338 338 337 337 338 339 338 337 339 340 341 340 340 340 341 340 339 339 339 338 339 340 338 338 339 339 340 340 340 340 340 339 340 340 339 334 334 334 332 332 336 339 334 334 337 336 335 335 335 335 333 333 332 332 332
338 342 347 344 346 341 345 346 344 344 343 342 342 342 341 340 339 338 338 338 340 340 340 342 343 343 343 341 340 339 337 337 337 337 337 335 335 337 338 339 342 341 341 341 340 340 340 340 340 340 340 340 338 339 339 339 339 340 339 339 339 339 339 338 334 334 334 333 332 332 332 331 332 333 334 334 333 333 333 333 333 332 331 331 331
339 344 346 347 346 340 345 345 345 344 343 343 342 341 341 340 339 339 338 338 339 339 339 341 343 343 343 343 340 338 336 336 336 336 337 337 337 337 338 338 339 338 340 340 339 339 339 339 339 339 339 339 338 338 339 339 339 339 339 338 338 338 336 334 333 333 333 332 331 332 330 332 331 333 332 334 334 334 333 331 330 332 332 332 331
343 345 346 344 345 345 340 344 345 344 343 342 342 341 340 340 339 339 339 339 339 338 338 339 339 341 341 341 340 338 336 335 335 337 336 335 336 338 338 338 339 341 341 340 340 339 338 338 338 338 338 338 338 338 339 339 339 339 338 337 337 338 333 332 333 334 333 332 332 331 331 330 330 332 334 336 335 332 331 330 330 331 331 330 329
342 346 345 345 345 346 342 339 343 343 344 343 342 342 340 339 339 339 339 339 339 339 338 337 337 338 339 339 340 339 337 336 335 335 337 336 337 336 337 338 338 340 340 340 339 339 338 339 338 338 337 337 339 339 339 339 338 338 337 337 337 336 331 332 333 333 331 332 331 330 330 329 335 335 335 334 332 332 332 331 330 329 327 327 327
345 346 347 346 345 347 346 342 335 337 341 343 343 343 342 341 340 340 339 339 340 339 338 338 338 339 340 339 340 339 338 336 336 336 338 337 337 337 337 336 336 339 339 338 338 338 338 337 337 337 336 337 338 339 339 338 337 337 336 336 335 333 331 331 334 332 332 332 331 330 330 331 334 332 332 332 330 328 331 331 329 327 327 326 326
344 346 346 345 346 346 345 344 340 331 333 337 339 340 341 343 344 343 342 341 340 342 343 339 338 340 339 339 339 340 338 335 335 336 339 337 337 336 336 336 336 337 337 336 336 337 337 336 336 336 336 336 337 338 338 337 336 335 334 334 333 332 331 328 334 333 332 333 332 331 330 331 332 331 330 328 331 331 330 329 327 326 326 326 326
345 345 344 345 345 344 345 344 345 344 345 338 333 337 339 341 340 340 341 342 341 341 340 341 342 342 340 339 339 339 339 336 336 337 337 339 339 337 335 335 338 339 338 337 337 337 336 336 335 335 335 335 335 336 337 336 335 334 333 332 332 330 330 329 334 332 332 334 333 333 331 334 333 328 327 329 329 329 328 326 325 326 325 324 324
343 342 343 344 344 345 345 345 343 344 343 342 344 342 334 337 338 338 340 340 339 339 338 336 338 337 336 334 334 334 334 335 336 336 335 336 336 337 338 337 336 335 336 336 336 336 335 335 335 335 334 335 335 335 335 333 332 331 331 331 329 329 327 332 334 334 333 332 332 330 329 333 330 328 328 327 327 328 327 325 323 325 324 323 323
341 342 342 343 343 344 345 344 343 343 343 341 342 343 333 331 335 336 336 336 336 335 333 332 331 330 330 330 330 333 330 332 325 332 332 333 331 332 335 336 334 334 335 335 335 335 335 335 334 334 334 334 335 333 332 332 331 329 329 328 328 325 335 334 334 333 333 331 330 327 329 333 329 329 329 328 327 327 325 323 323 324 322 322 321
339 340 341 342 343 343 343 343 343 342 342 341 341 342 341 330 330 328 330 332 332 331 329 324 323 324 327 326 329 334 335 333 335 332 328 336 324 326 334 335 335 335 336 334 335 334 335 334 334 333 335 332 329 327 328 329 328 328 327 326 321 333 334 333 333 332 332 330 330 329 331 332 330 329 329 326 325 325 322 323 322 322 322 322 322
336 338 341 341 341 342 343 342 342 342 342 341 341 343 343 337 340 340 340 335 329 327 334 338 336 337 327 333 336 334 334 334 333 333 332 334 332 322 327 332 334 333 335 333 334 334 334 333 333 332 332 330 326 333 329 323 323 325 324 320 330 334 333 333 332 331 331 330 329 330 333 334 330 327 326 330 328 325 323 322 322 322 321 320 320
333 335 338 339 341 341 342 340 341 341 342 341 339 340 341 340 341 338 339 332 337 338 338 338 337 337 336 336 333 332 334 333 333 335 334 324 331 323 325 328 331 330 332 333 333 333 332 332 331 330 329 328 330 333 331 332 332 319 319 330 333 331 333 332 332 331 331 330 331 329 333 330 327 326 326 327 325 325 323 321 321 321 320 320 319
333 334 336 339 340 340 341 341 341 341 340 340 340 338 339 340 340 339 337 336 338 336 337 335 337 338 337 335 333 334 332 335 329 328 331 332 329 321 322 324 325 325 326 330 329 330 330 328 327 326 326 328 331 330 330 329 330 331 331 330 330 331 332 331 331 330 330 331 331 325 330 328 327 327 327 326 325 324 323 322 321 320 320 320 319
334 335 336 337 339 339 340 341 342 341 340 338 338 337 338 338 339 338 338 336 336 337 337 336 337 337 336 334 335 334 333 333 330 329 331 331 331 332 331 332 332 332 324 331 330 333 329 331 328 325 330 331 330 330 330 329 329 329 329 329 329 330 331 331 330 330 330 330 330 324 329 331 329 329 328 327 325 324 323 323 323 322 320 320 319
334 333 334 336 338 339 340 341 341 341 340 339 337 336 337 337 337 337 337 337 337 336 337 336 336 336 335 335 335 333 332 332 332 331 332 333 331 331 331 332 332 331 329 330 329 330 329 330 329 329 328 329 329 329 329 328 328 327 328 329 328 329 329 329 330 330 329 329 331 322 327 330 332 330 329 328 327 324 323 322 321 324 322 320 319
333 333 334 336 337 339 340 341 340 340 340 340 338 337 336 337 337 337 337 336 336 335 336 336 335 335 335 335 332 332 331 331 331 332 331 332 330 330 330 331 331 331 329 330 330 329 329 328 328 328 327 327 327 328 328 327 327 328 327 327 328 328 328 329 329 329 330 329 325 320 325 328 330 330 329 329 328 325 324 323 322 324 323 320 321
334 333 334 335 337 338 339 340 340 340 340 339 338 337 337 336 337 336 336 334 334 335 334 337 337 335 334 333 329 332 331 330 331 331 331 330 330 331 330 330 331 330 330 329 329 327 327 327 327 327 327 326 326 327 326 326 326 326 327 327 327 327 327 327 328 329 329 329 330 321 322 326 328 331 330 329 328 327 325 324 323 322 321 322 319
332 333 334 335 337 338 338 339 339 339 339 339 338 338 337 337 337 337 335 333 335 334 335 336 336 335 335 334 332 331 331 331 331 330 331 329 330 331 329 329 329 328 329 327 328 326 325 326 325 326 326 325 325 325 325 325 325 325 325 326 326 325 326 326 326 327 329 329 328 325 321 325 327 331 332 330 329 328 327 326 324 323 323 322 321
332 333 334 336 337 338 338 338 339 339 339 339 338 337 337 336 337 337 337 335 335 335 335 334 334 334 334 334 334 332 331 330 331 330 330 330 330 331 330 329 328 328 327 326 325 325 324 324 325 325 325 325 324 324 324 324 324 324 324 324 325 324 324 324 325 326 327 328 328 329 318 323 325 329 331 330 329 329 329 328 326 323 323 323 323
333 333 334 335 337 337 338 338 339 339 340 338 338 337 337 336 337 337 337 336 335 335 335 334 334 334 334 335 334 333 331 332 331 331 330 330 330 330 329 328 328 328 327 326 326 325 324 324 324 324 323 324 323 324 323 322 323 324 324 324 323 324 323 323 324 325 325 326 327 328 327 318 323 326 330 330 330 329 329 329 328 326 325 324 326
333 333 334 335 336 337 337 338 339 339 339 338 338 338 337 337 337 337 337 337 337 335 334 334 332 334 335 334 334 333 331 332 332 332 331 330 330 329 329 328 328 328 327 326 325 324 323 324 325 325 325 324 323 323 324 322 322 323 324 324 324 323 322 323 324 324 325 325 325 326 327 327 319 321 324 329 330 329 328 329 329 328 327 327 327
334 335 335 335 334 336 336 338 339 339 339 338 338 339 339 338 337 337 337 339 337 336 335 334 334 334 335 334 334 333 333 332 332 332 331 330 330 330 329 329 329 328 327 326 326 325 323 322 323 324 323 322 321 322 324 322 321 321 322 323 322 322 322 322 323 323 324 325 325 325 326 326 327 318 318 321 327 331 329 328 328 328 328 327 328
334 335 336 334 335 336 337 338 338 338 339 338 338 338 339 339 338 338 337 338 337 336 335 335 334 334 334 334 333 333 332 332 332 332 332 330 330 330 330 329 329 329 328 326 324 323 321 321 321 321 318 320 320 320 320 320 320 320 321 322 321 321 321 321 322 322 324 324 325 325 325 325 325 326 327 319 320 323 328 330 331 328 329 329 329
334 334 334 335 335 335 335 335 337 338 338 338 338 338 339 339 339 338 337 338 337 337 337 336 335 335 334 333 332 332 333 333 332 331 331 331 329 329 329 329 329 329 327 325 323 323 322 321 320 318 319 318 318 319 319 319 319 319 320 320 320 320 320 320 322 322 323 324 324 324 324 324 325 325 326 326 317 319 322 327 328 328 328 328 328
333 334 335 335 335 335 336 335 335 336 337 337 338 338 338 339 339 333 338 338 337 337 337 337 335 335 334 333 332 332 332 332 332 332 330 330 329 328 329 329 329 328 326 324 323 322 321 321 320 319 317 317 317 317 318 319 319 318 320 319 319 319 319 320 320 321 322 323 323 323 324 324 325 325 322 325 325 322 319 320 324 326 327 329 328
334 334 334 335 335 335 335 335 335 335 335 336 337 337 337 338 338 339 338 338 337 337 337 337 336 336 334 332 331 331 330 330 331 331 330 329 329 329 329 330 329 327 325 324 322 322 321 320 319 319 318 316 316 317 317 318 318 318 319 319 319 318 318 318 319 320 322 321 322 322 323 324 324 317 324 325 325 325 319 318 321 323 323 325 327
334 334 335 335 335 335 335 335 336 335 334 335 336 336 336 337 338 338 338 338 338 337 337 337 336 336 334 332 332 331 330 331 332 332 331 329 329 328 328 328 327 326 325 324 323 322 322 321 319 319 318 317 316 317 317 317 318 317 317 317 318 317 317 317 317 315 318 318 319 320 321 322 323 323 324 324 325 325 325 320 317 317 316 318 324
334 334 335 336 335 335 335 335 334 335 334 335 335 335 335 335 336 337 338 338 338 340 338 336 336 336 336 335 333 332 331 333 333 332 330 329 327 327 327 327 326 325 324 323 323 322 321 320 318 318 319 318 317 318 317 317 316 315 315 314 315 315 316 315 315 315 316 317 317 318 321 321 321 322 323 323 323 324 324 324 323 321 320 316 321
331 333 332 334 334 335 335 335 334 334 334 333 333 333 333 333 332 334 334 334 336 336 338 338 338 336 336 336 336 334 333 332 333 333 332 331 330 328 326 327 326 325 324 323 323 322 321 320 319 319 319 319 317 317 315 313 312 311 310 311 313 313 313 312 312 312 312 313 315 316 316 318 319 320 321 322 322 322 323 323 321 323 323 320 317
328 329 331 332 333 333 334 333 335 334 333 332 331 331 329 331 331 330 330 332 333 335 336 337 337 336 336 337 337 335 334 333 333 333 332 328 329 329 329 328 327 326 325 324 324 323 323 322 321 320 318 317 315 314 314 313 310 308 310 310 310 312 311 310 310 311 311 312 313 313 314 315 317 318 319 320 320 321 321 322 322 322 322 323 321
323 326 327 329 331 332 332 333 334 333 332 332 332 331 332 330 330 330 330 330 331 332 333 335 336 337 337 337 337 336 335 334 332 332 332 331 330 329 330 330 328 325 323 323 323 320 323 322 321 319 318 316 315 316 314 311 308 307 308 310 311 312 311 310 309 309 311 311 312 312 313 313 315 316 317 318 319 319 319 320 320 320 321 321 322
318 322 325 327 329 330 331 332 332 332 332 332 332 332 332 332 331 330 331 331 334 334 334 334 336 336 337 337 337 337 337 335 333 331 331 331 331 331 330 329 326 323 321 321 321 321 322 322 320 318 317 316 315 317 315 312 310 312 310 307 306 307 312 311 311 310 311 310 311 311 312 312 313 315 316 316 316 317 317 318 318 318 318 319 320
312 317 321 324 326 328 330 331 332 332 332 332 331 333 333 333 333 332 333 333 331 333 335 335 335 335 335 336 337 337 337 336 335 333 331 332 331 330 328 327 326 324 322 321 322 321 322 321 320 317 317 315 312 313 314 312 311 311 306 305 308 307 304 309 313 315 312 311 311 310 311 311 313 314 314 314 314 315 316 316 315 316 316 317 318
310 313 318 321 323 326 328 330 330 331 332 331 330 331 331 331 332 333 333 333 333 332 331 331 333 333 333 335 335 336 336 336 336 335 330 330 330 330 328 328 328 327 325 323 322 323 322 322 321 318 316 315 315 313 312 311 310 312 312 309 307 304 304 308 311 312 316 313 311 311 311 311 312 312 312 312 313 314 314 314 314 314 314 315 315
308 310 313 317 319 323 325 327 328 329 330 330 329 329 328 328 328 327 326 325 324 324 324 324 326 326 328 332 334 335 335 335 335 335 335 330 330 330 330 329 328 328 325 324 323 324 322 320 320 319 317 317 316 314 312 311 310 311 312 314 315 312 311 312 309 307 314 314 315 313 311 311 312 311 311 312 312 312 311 311 312 312 313 314 314
310 310 311 313 316 318 322 324 325 326 328 328 328 326 326 326 326 326 325 324 323 325 327 328 328 328 329 329 330 332 332 332 333 334 334 335 333 332 331 330 329 329 328 326 323 321 321 321 321 319 318 316 315 312 313 313 308 310 310 311 311 312 313 310 307 309 306 312 315 315 313 312 312 311 311 311 311 311 311 310 310 311 312 313 313
309 308 309 310 313 317 320 321 323 324 326 327 327 326 325 325 325 325 325 324 324 324 326 326 328 328 327 328 329 329 330 330 331 331 331 331 331 332 333 333 331 330 327 325 324 324 324 324 321 320 318 317 316 313 313 315 309 308 308 308 307 308 310 311 310 307 305 303 306 312 312 312 311 310 310 310 310 310 310 310 310 310 310 311 312
312 312 312 313 314 317 319 320 321 323 324 324 325 325 325 325 325 324 324 324 325 325 325 327 326 327 326 326 326 327 327 329 329 330 329 330 329 330 332 331 331 331 326 326 326 325 323 322 320 318 318 317 316 315 314 314 315 314 308 306 308 308 308 308 308 307 303 302 303 305 307 311 310 310 310 310 310 310 310 310 310 310 310 310 310
312 314 314 316 318 319 319 321 322 323 324 324 324 324 324 324 324 324 323 323 324 324 324 323 324 324 323 323 323 324 325 325 326 327 327 328 328 329 329 329 329 329 327 329 328 326 324 323 322 320 319 317 316 315 314 315 315 315 316 313 308 306 305 305 306 306 305 305 303 305 307 307 306 308 309 309 308 309 309 309 309 309 309 309 309
314 317 317 317 318 319 320 319 318 320 321 322 323 323 324 324 323 324 323 322 323 323 322 322 322 321 320 321 322 322 324 323 324 324 324 325 325 326 325 326 327 327 327 328 327 326 325 324 323 322 320 318 316 316 314 314 315 315 315 314 312 310 308 306 307 305 305 303 303 304 306 306 305 306 309 310 309 308 308 308 308 308 308 308 308
Wind_Speed
9 10 10 8 6 5 6 8 9 8 8 8 7 6 7 7 8 8 8 11 12 10 10 10 10 11 12 12 13 13 12 12 14 14 15 14 14 13 14 15 15 15 14 13 13 13 14 14 14 15 15 16 17 17 17 17 18 17 18 17 18 18 17 17 18 18 18 19 18 17 17 17 17 16 16 16 15 14 11 12 12 12 12 13 16
11 10 9 9 6 5 6 7 9 8 8 8 7 6 7 8 8 7 8 11 11 11 10 10 11 11 12 12 13 14 14 14 14 14 14 15 15 15 15 15 15 15 14 14 14 13 14 15 16 15 16 16 16 16 16 17 17 17 17 17 17 16 16 15 14 14 15 15 16 16 17 17 16 16 16 16 16 15 14 14 13 11 9 14 15
11 11 9 9 6 6 7 8 9 8 8 8 7 7 6 6 6 7 7 9 12 11 11 11 12 12 13 13 14 14 14 14 14 14 14 13 12 11 15 16 15 14 14 13 14 14 14 15 15 16 16 16 16 16 17 17 16 16 16 16 15 15 14 13 11 9 12 15 17 16 15 16 15 16 16 17 17 18 14 12 13 14 11 17 15
11 10 10 8 5 5 8 10 9 9 9 8 7 6 4 5 7 7 12 13 10 10 11 12 12 12 13 13 14 14 14 14 13 13 13 13 13 13 13 13 14 12 14 15 14 15 15 14 15 15 15 15 15 15 15 16 15 16 15 15 14 13 13 12 9 6 3 5 9 10 9 10 12 16 17 18 18 18 16 18 19 19 18 17 17
11 10 9 8 9 7 8 11 10 9 9 8 7 4 4 6 7 9 15 12 11 10 12 13 12 12 12 13 14 13 13 12 13 13 12 11 11 14 15 14 12 13 14 14 15 14 14 14 14 14 13 13 13 14 15 15 15 15 15 14 14 13 11 9 7 7 7 5 6 11 10 11 10 14 16 18 17 16 16 17 18 18 18 18 18
10 9 8 7 8 9 6 10 9 9 9 8 7 5 5 5 8 8 11 12 11 12 12 12 11 12 13 13 13 12 13 12 12 13 12 12 11 11 14 14 13 14 13 14 13 13 13 13 13 13 13 12 12 13 14 14 15 14 14 14 14 12 11 11 10 10 7 8 11 8 9 10 10 9 16 16 16 15 16 17 17 17 17 18 19
11 8 9 8 7 9 7 9 9 10 9 8 6 6 4 4 7 9 9 12 10 12 12 11 10 11 14 14 13 13 12 12 12 12 12 10 12 14 12 13 14 13 13 13 13 13 13 13 13 13 12 12 12 12 12 13 13 13 13 14 12 11 10 8 6 6 6 2 7 8 8 10 9 7 15 15 16 17 16 16 16 16 17 17 17
9 7 8 8 8 9 8 10 10 10 9 7 6 5 5 5 7 9 10 12 10 10 13 11 11 11 13 13 11 11 12 12 12 11 11 12 12 11 14 13 13 13 13 12 13 12 13 13 13 12 12 12 12 12 12 12 12 12 13 12 11 9 8 7 7 7 8 9 8 8 8 9 9 8 12 14 15 15 16 16 15 14 14 15 11
8 8 8 9 9 10 8 10 10 10 9 8 7 7 6 7 8 8 10 10 10 10 11 11 11 12 13 12 11 11 11 12 12 12 11 10 9 12 12 11 12 12 12 12 12 12 13 12 12 12 13 12 12 12 12 12 12 12 12 12 10 9 7 5 5 10 7 7 9 8 8 9 9 8 11 13 13 14 12 13 13 14 15 12 12
9 7 9 7 9 9 7 9 10 10 8 7 7 7 7 8 9 9 9 10 11 10 10 11 11 12 12 12 12 11 11 11 12 11 11 10 9 12 10 10 11 12 12 12 12 12 12 12 12 12 12 12 12 11 11 11 11 11 12 11 9 9 8 8 7 9 7 7 9 10 9 10 8 8 11 12 13 15 17 16 12 11 10 10 13
9 9 11 5 9 7 10 11 10 9 9 8 7 8 8 8 8 8 7 7 9 11 12 11 11 12 12 12 12 12 11 11 11 10 12 13 11 10 10 11 11 11 12 12 12 12 11 11 12 11 11 11 11 11 11 11 11 11 11 11 10 9 9 9 7 7 7 7 7 7 9 10 8 7 10 11 12 14 12 12 12 11 12 11 11
9 9 11 8 10 8 9 9 9 9 8 8 8 8 8 7 6 6 6 7 8 8 9 10 11 11 11 12 11 11 10 10 10 11 12 9 9 10 9 11 13 12 11 11 12 12 11 11 12 12 12 12 11 11 11 11 11 11 11 9 9 7 8 10 7 5 6 7 7 6 8 8 8 8 10 9 10 11 9 10 12 11 12 12 12
9 8 11 10 10 8 9 9 9 9 9 9 8 8 8 7 6 6 5 7 8 8 9 10 12 11 11 11 12 11 10 9 8 10 12 10 9 9 8 9 9 10 12 12 11 11 11 11 11 11 11 11 10 10 10 10 10 10 10 8 7 7 6 9 5 6 5 6 6 6 7 7 7 7 7 9 10 12 12 11 10 12 12 11 11
9 9 9 9 9 9 9 9 8 9 8 8 8 8 8 7 6 6 7 7 8 8 8 9 9 11 11 10 11 11 10 8 7 10 11 10 10 10 8 9 11 13 12 11 11 10 11 10 11 10 10 10 10 10 10 10 10 9 9 8 6 7 8 4 6 6 6 6 6 8 7 6 6 9 10 11 10 9 8 10 11 11 11 11 11
9 8 10 8 10 10 9 9 8 7 7 8 8 8 8 7 6 5 6 6 7 7 7 7 8 9 9 10 10 10 9 8 7 7 10 11 9 8 8 8 9 10 11 10 11 11 11 11 10 10 10 9 10 10 10 10 10 9 8 7 7 8 10 3 4 5 6 5 6 7 6 6 10 10 11 10 10 11 11 9 10 10 9 9 9
8 8 9 9 9 10 8 8 8 8 8 7 7 6 6 6 6 6 5 6 7 6 6 8 8 10 9 10 10 10 9 7 7 8 10 10 10 8 8 7 9 10 10 10 11 11 10 10 10 9 9 9 9 9 9 9 9 8 7 7 7 8 10 10 3 4 5 5 5 6 7 6 7 8 9 9 7 6 11 10 9 8 8 8 9
9 8 9 9 9 9 8 9 8 9 8 8 7 7 6 6 6 6 5 6 7 8 9 7 9 10 10 10 9 8 8 7 6 9 9 9 10 8 7 6 8 8 8 9 10 10 10 9 9 8 8 8 8 9 8 8 8 8 7 5 6 7 8 10 3 5 4 5 4 4 5 5 8 8 7 5 10 9 9 9 8 8 8 9 8
8 8 8 9 9 8 8 9 10 8 8 7 7 8 7 6 6 6 6 6 8 8 7 8 8 9 9 9 8 6 7 6 7 11 10 8 8 8 6 6 11 13 12 11 10 9 9 8 7 8 7 7 8 8 8 8 7 7 6 5 4 5 6 9 3 4 4 4 4 5 5 6 7 5 4 7 8 8 8 6 6 6 6 7 7
7 7 8 8 8 8 8 8 9 8 8 7 6 7 8 6 6 6 6 6 6 6 6 8 9 9 9 9 8 8 7 7 7 9 9 8 9 9 10 9 8 8 9 9 9 8 7 7 7 7 7 7 7 8 7 8 7 6 5 3 1 1 4 3 2 2 4 2 2 5 4 3 3 5 7 5 5 7 6 5 3 7 6 6 6
7 7 8 7 8 8 7 7 7 8 7 6 7 8 8 8 6 6 6 6 6 6 7 8 9 9 9 9 9 8 6 6 7 9 9 9 9 7 7 8 8 7 7 8 7 7 6 6 6 6 6 6 8 7 7 7 6 4 3 1 1 3 2 1 1 2 1 2 2 5 4 2 5 6 6 7 6 6 6 3 3 6 6 5 5
6 7 6 7 8 8 9 7 7 8 7 6 6 7 7 9 6 6 7 6 6 6 7 7 7 7 7 8 8 5 6 5 5 6 8 6 6 7 7 7 7 7 7 6 6 6 6 5 5 6 7 8 7 7 6 5 5 3 1 2 3 4 2 1 2 1 0 1 1 5 5 6 5 4 5 3 4 7 4 3 2 4 3 5 5
8 8 8 8 8 8 8 8 7 8 7 5 5 6 6 6 6 6 6 5 5 6 6 5 6 6 6 6 4 4 4 4 5 5 6 7 6 7 6 6 7 7 7 4 5 6 5 5 5 5 4 5 8 4 4 3 3 3 3 5 4 3 1 2 2 0 1 1 1 6 3 5 7 2 3 9 8 4 4 2 4 4 4 2 2
8 8 7 9 7 7 7 8 7 7 7 6 4 5 7 5 6 6 5 5 6 6 5 5 5 5 6 5 3 3 2 3 4 5 6 10 8 7 7 6 7 8 9 9 6 5 5 4 4 2 2 5 5 3 3 3 3 3 3 4 5 1 1 2 2 2 1 2 2 4 3 6 3 1 2 4 2 6 5 2 1 3 3 3 3
9 8 8 8 8 7 8 7 7 7 7 6 5 5 5 5 6 5 5 5 5 5 4 4 4 4 4 4 2 4 3 4 7 9 8 5 5 7 8 8 7 7 9 6 7 7 7 6 3 2 4 5 4 0 2 1 2 3 3 2 2 1 2 3 3 2 2 1 1 3 3 3 4 4 3 3 4 5 5 4 2 2 2 2 1
8 8 7 8 10 9 8 8 8 7 8 6 6 6 6 5 5 5 5 5 5 5 4 4 4 4 4 4 2 4 3 4 5 5 5 5 5 5 5 4 4 4 4 3 3 4 4 3 3 5 5 2 1 1 0 1 1 1 1 2 1 2 3 3 2 2 2 2 3 2 1 5 5 4 4 4 5 4 6 7 6 4 2 4 3
8 8 9 9 9 9 9 8 8 8 8 7 7 6 6 6 6 5 5 5 4 5 4 4 4 4 4 3 3 4 3 4 5 4 4 4 5 5 4 4 4 4 4 3 3 3 3 2 3 4 2 2 1 1 2 2 1 2 1 0 2 2 3 2 3 3 3 3 5 8 4 3 6 9 6 5 5 5 6 5 5 8 6 6 3
8 8 8 8 9 10 10 9 9 8 9 8 7 6 7 6 5 6 6 5 5 5 4 4 4 5 5 4 4 4 4 4 4 4 4 4 4 4 4 3 4 3 4 3 2 2 3 2 3 2 2 1 1 1 2 2 2 2 2 1 2 3 3 3 3 4 3 3 5 9 5 4 6 6 7 9 9 8 8 8 7 8 8 5 7
7 9 8 9 8 11 10 10 9 9 9 9 8 7 7 7 7 5 5 6 5 5 5 4 3 4 5 4 5 4 4 4 4 4 4 4 4 3 3 3 3 3 3 3 3 3 3 2 2 2 2 2 2 2 2 3 2 3 3 3 2 3 4 4 3 4 4 5 2 8 7 6 7 7 8 8 9 9 9 10 9 7 8 9 6
9 10 9 9 10 9 11 11 10 11 9 9 9 7 7 7 7 6 7 6 6 6 5 5 5 4 5 5 5 4 4 4 4 4 4 4 3 3 3 3 3 3 3 3 3 3 3 3 3 3 3 3 3 3 3 3 3 3 3 3 3 4 4 4 4 4 5 5 6 5 9 6 7 8 11 12 12 10 10 11 10 9 12 8 9
10 10 10 9 9 10 11 12 11 10 10 9 8 8 7 7 7 7 7 7 7 6 6 5 5 4 4 5 5 5 4 4 4 4 4 4 4 4 3 3 3 3 3 3 3 3 3 3 3 3 3 3 3 3 2 3 4 4 3 4 4 4 4 4 5 5 5 5 6 2 13 9 9 9 11 12 12 11 11 13 13 10 11 9 10
10 11 10 10 9 9 10 11 12 10 9 9 9 8 8 8 7 7 7 6 7 7 6 6 5 5 5 5 5 5 4 4 4 4 4 4 4 4 4 4 4 4 4 3 3 3 3 3 3 3 3 3 3 3 3 4 4 4 4 5 4 4 4 4 4 5 5 5 5 5 7 10 8 7 10 11 14 14 14 14 14 13 13 13 15
11 11 10 9 10 11 11 11 11 10 9 10 9 8 8 7 7 7 6 6 6 7 6 6 6 6 6 6 7 5 5 4 4 4 4 4 4 4 4 4 4 4 4 4 3 3 3 3 3 3 3 3 3 3 4 4 5 5 5 5 5 5 5 5 5 5 6 5 6 6 6 6 9 10 9 9 11 15 15 15 16 16 16 16 15
9 10 10 10 11 11 11 12 12 11 11 11 9 9 8 8 7 7 7 6 6 6 7 7 6 7 6 7 6 7 6 5 4 5 5 4 4 4 4 4 4 4 4 4 4 3 3 3 3 4 4 4 5 5 4 5 5 5 5 5 5 6 6 5 5 5 6 6 6 6 6 6 7 10 12 10 10 11 13 16 18 17 17 17 19
9 8 11 12 10 9 9 9 11 12 12 11 10 9 9 8 7 7 7 7 7 7 7 7 7 7 7 8 8 8 8 5 5 5 5 5 5 5 5 5 4 4 4 4 4 4 4 4 4 4 5 5 6 6 6 6 6 6 6 6 6 6 6 6 6 6 6 6 6 6 7 7 6 6 7 12 13 12 11 12 14 17 18 19 19
9 9 12 12 13 10 9 10 10 12 11 12 11 10 9 9 8 8 8 8 8 7 7 7 6 6 7 7 8 9 9 8 7 7 6 5 5 5 5 5 4 4 4 4 4 4 4 5 4 5 5 5 6 6 6 7 7 7 6 5 6 6 6 6 6 6 6 6 6 6 7 6 7 6 6 7 10 15 14 13 13 13 18 20 20
11 10 10 11 12 12 11 10 12 13 12 12 12 11 10 9 8 7 8 8 7 7 7 7 6 6 6 5 6 8 7 8 8 7 7 7 5 5 5 5 5 4 4 4 4 5 5 5 5 5 5 6 6 7 6 7 7 7 6 6 6 6 6 6 6 7 6 6 6 7 7 7 7 7 6 7 7 9 17 16 14 13 14 18 22
11 11 11 11 11 12 11 12 11 12 13 12 12 11 10 10 10 8 9 8 7 8 6 5 6 5 4 7 7 8 8 7 8 8 8 8 6 5 5 5 5 4 4 5 5 5 5 5 6 6 6 6 7 8 7 7 6 7 6 6 5 5 6 6 6 6 5 7 7 7 7 8 7 7 7 8 7 8 9 15 16 13 14 15 18
11 11 11 11 11 11 11 11 10 10 10 11 11 10 10 10 9 9 9 10 9 8 8 8 7 5 5 7 8 8 8 8 9 9 8 7 5 5 6 6 6 6 6 6 6 6 6 6 6 6 7 7 7 8 8 7 5 4 5 6 6 6 6 6 5 5 6 7 7 8 8 8 7 8 8 8 8 8 8 11 16 16 16 16 16
9 11 11 10 10 10 9 11 10 10 9 9 10 10 10 10 9 10 9 10 9 7 8 10 9 9 9 8 8 7 8 9 9 9 9 6 6 6 5 5 5 6 6 7 7 7 7 7 8 7 7 8 7 7 6 4 3 3 5 7 7 8 6 5 5 6 5 6 7 7 6 8 8 8 8 8 9 9 9 8 7 8 11 19 17
9 10 11 11 10 10 10 9 11 10 9 9 9 9 8 8 9 9 10 10 10 9 9 8 6 7 7 8 8 8 8 7 8 8 8 8 8 6 6 7 8 8 8 9 8 8 9 9 9 8 8 7 6 6 3 2 3 5 7 7 8 8 9 6 7 7 6 7 8 7 8 8 8 8 9 8 8 9 9 9 8 8 8 13 20
10 11 12 12 12 11 11 11 10 10 9 9 8 9 9 9 9 9 9 9 9 9 9 10 10 9 6 7 7 7 5 6 8 9 8 8 8 7 8 9 8 8 8 8 8 8 7 7 7 7 8 8 6 6 5 3 4 6 7 10 10 9 10 10 11 9 9 8 8 9 8 8 9 8 9 8 9 9 9 9 9 9 10 9 10
11 12 13 13 12 12 12 11 9 10 10 10 8 9 8 8 7 8 8 7 7 8 8 8 8 8 9 8 8 9 9 10 8 9 9 9 9 8 9 10 8 6 5 5 6 7 8 8 6 6 6 8 7 5 5 5 5 7 6 6 7 7 9 9 11 11 11 9 10 10 9 10 10 9 8 8 9 9 9 8 9 10 10 9 10
9 10 10 11 11 11 11 10 9 9 9 9 9 8 8 8 7 6 6 6 6 6 6 6 6 7 9 10 10 9 8 7 6 7 8 9 10 9 9 6 5 4 5 6 7 9 9 9 8 7 6 6 7 5 6 8 6 5 5 4 7 7 5 6 8 11 10 10 9 10 10 10 11 10 8 8 8 8 8 8 10 11 11 11 11
6 8 9 10 8 9 9 10 9 9 8 9 8 7 7 7 7 7 5 5 4 4 6 6 6 7 8 8 9 8 9 9 10 9 8 8 8 8 6 6 7 6 7 8 8 9 9 8 8 8 7 7 5 7 7 8 7 4 5 5 3 2 9 5 6 7 11 12 11 10 9 9 10 9 8 9 9 8 7 7 10 11 12 13 12
6 6 6 7 6 8 8 8 7 8 7 7 8 7 6 6 6 5 5 5 5 4 5 6 7 7 7 6 7 8 9 9 9 8 7 8 7 7 7 7 8 8 8 8 10 10 9 7 6 6 8 9 7 6 6 8 9 9 8 3 3 3 6 8 7 8 6 8 10 11 9 9 8 9 8 9 9 8 8 9 9 10 12 12 13
5 5 5 6 5 5 7 7 6 6 7 7 8 7 7 8 8 7 8 8 8 7 8 8 6 7 7 6 7 7 7 8 9 9 8 7 8 8 8 7 7 6 4 6 5 4 5 6 7 8 10 10 8 5 7 6 10 11 12 10 8 8 6 1 4 7 2 5 6 8 9 10 8 8 8 9 9 8 8 9 10 11 12 11 12
4 3 2 4 5 5 6 7 6 5 6 7 8 7 7 8 9 9 8 8 7 6 5 5 6 5 5 6 6 6 7 8 8 7 8 6 7 8 9 8 8 7 7 7 8 8 8 9 9 9 9 7 7 9 10 6 4 8 9 11 10 9 7 5 7 6 13 6 6 6 7 7 8 9 10 10 10 9 8 9 11 12 12 11 11
3 4 5 4 6 5 6 6 5 5 6 6 7 7 7 7 7 8 7 7 7 6 5 5 5 5 5 5 5 5 5 5 6 7 8 9 8 7 7 7 8 9 8 8 9 10 9 7 7 7 6 6 8 9 9 9 7 5 8 9 9 10 11 10 8 9 11 14 13 8 8 7 8 11 11 10 11 11 11 10 10 11 11 11 11
3 4 5 6 6 6 6 6 6 6 6 7 7 7 6 6 7 7 7 6 6 5 4 4 3 4 4 4 6 6 5 5 6 7 6 7 7 7 7 7 7 7 5 5 6 6 6 7 7 8 8 9 9 9 8 10 10 10 4 6 8 9 8 8 9 9 10 11 16 11 11 8 10 12 10 11 11 11 11 11 11 12 10 11 11
4 5 5 5 6 6 7 7 7 5 6 7 6 7 6 6 5 6 6 5 4 3 3 4 4 3 5 6 6 6 5 6 6 6 5 7 8 7 8 9 9 9 7 9 7 8 9 9 11 11 11 11 9 10 10 10 9 10 10 7 6 5 5 6 8 9 9 11 14 16 10 12 13 10 8 10 11 12 12 11 12 12 12 11 10
5 6 6 6 6 7 7 8 7 6 5 7 6 7 6 5 5 4 5 5 4 4 4 4 4 4 5 5 5 5 5 5 4 5 6 6 6 7 7 9 9 7 7 7 8 6 5 6 7 8 9 10 9 9 10 11 10 10 11 9 9 8 9 10 9 8 9 9 9 14 13 10 12 16 13 9 11 12 12 11 13 13 12 12 11
Wind_Direction
135 131 119 117 129 118 112 106 99 98 94 89 94 84 77 85 81 73 80 91 83 84 83 82 86 87 88 87 84 87 85 82 77 75 75 74 75 75 74 72 71 71 75 79 79 74 75 74 72 71 69 67 66 67 64 62 59 58 59 58 58 61 67 73 74 72 73 72 73 74 73 72 72 71 72 70 67 57 55 63 68 70 70 69 71
138 130 126 122 118 110 105 109 100 102 97 91 82 83 82 83 85 73 71 93 91 91 89 90 88 85 85 81 80 74 74 75 76 74 71 73 74 70 71 74 70 69 68 71 70 73 76 75 72 70 68 66 66 67 64 63 61 62 63 64 63 63 62 62 64 78 80 81 79 76 74 75 74 75 73 69 65 61 62 60 64 73 74 76 73
129 132 125 117 111 114 118 109 103 102 100 93 83 74 77 78 74 78 87 81 88 86 88 93 92 86 81 77 76 74 75 75 72 69 72 72 74 76 74 73 74 76 74 73 74 71 71 71 73 69 66 67 67 67 63 63 62 63 66 68 67 67 65 61 56 44 89 99 97 92 78 71 71 70 73 74 69 59 55 67 87 87 85 81 71
129 124 122 113 97 91 118 106 100 98 98 97 97 80 82 89 76 78 73 78 74 81 91 92 92 88 83 78 77 75 77 77 77 76 75 71 70 72 75 75 74 74 78 76 74 75 72 74 73 70 70 70 71 72 69 65 65 65 66 66 67 64 63 61 56 63 87 126 131 92 75 77 70 72 74 70 66 63 64 69 69 73 75 75 72
124 118 119 134 132 117 112 106 110 107 104 103 96 88 80 87 97 92 90 90 86 79 82 88 90 88 88 87 82 82 80 82 82 80 78 77 79 82 78 76 76 77 76 74 75 76 80 77 75 75 76 74 75 74 72 67 65 64 64 64 63 59 52 42 36 34 48 34 50 78 79 77 74 75 79 77 73 71 72 72 72 73 74 76 77
122 125 129 134 127 120 118 113 111 107 103 100 97 100 78 81 97 90 98 88 83 82 80 84 89 97 92 86 82 79 81 82 87 85 82 79 78 79 81 79 80 75 76 82 82 81 82 80 77 75 76 77 77 79 80 75 71 69 66 64 63 56 44 30 19 360 5 73 77 84 87 83 81 80 82 84 83 82 80 78 78 80 80 78 76
124 132 131 128 124 118 113 108 106 100 94 94 99 93 89 77 101 107 100 91 87 90 95 91 88 86 86 84 86 87 87 88 89 87 84 85 80 81 89 87 84 83 82 82 82 86 82 76 77 76 77 80 81 80 81 77 76 71 73 71 66 59 51 40 21 349 305 78 80 75 76 75 73 73 78 81 86 85 83 78 79 79 76 75 75
128 132 135 129 125 118 107 107 106 104 106 105 106 102 83 70 87 94 88 88 87 89 99 96 97 94 90 86 83 87 89 93 94 93 87 79 81 85 84 90 88 82 73 75 87 83 79 77 75 79 80 82 86 88 86 83 80 74 75 76 70 59 45 24 355 8 47 78 81 79 78 79 76 76 78 86 84 81 76 72 72 75 77 75 70
135 138 134 122 114 99 104 114 109 106 108 107 95 89 84 73 99 99 95 93 95 87 89 101 101 93 89 87 87 87 90 96 96 94 92 89 85 84 88 91 90 90 92 89 77 79 79 79 80 79 79 80 83 84 85 85 85 78 76 76 70 55 43 14 328 286 73 68 75 83 86 85 75 71 64 67 64 69 84 91 82 70 63 69 83
142 140 94 88 123 111 111 117 115 110 109 106 94 94 85 82 82 88 103 103 102 98 96 93 86 93 95 89 90 91 98 102 98 93 94 99 93 91 93 95 91 90 92 92 87 84 78 74 75 76 80 82 81 82 85 85 84 81 72 68 57 36 6 344 325 70 82 79 75 73 73 85 80 70 68 68 66 66 69 64 65 62 66 65 73
139 131 97 113 122 110 125 118 119 119 115 111 108 93 85 83 87 90 90 91 97 108 99 91 94 95 95 94 91 93 97 98 96 98 82 78 83 91 95 90 89 89 82 77 79 84 87 89 87 87 88 89 86 84 84 87 84 79 68 59 43 25 359 331 297 71 75 90 91 89 88 82 79 82 79 74 76 77 70 75 77 79 78 72 73
144 129 115 132 126 121 122 117 120 120 121 115 106 94 89 85 89 100 95 102 101 98 98 89 89 93 96 96 91 91 90 91 98 96 87 89 90 85 86 88 86 90 95 94 88 83 81 80 80 86 90 87 87 89 89 88 87 79 73 62 43 20 358 345 59 69 60 55 65 87 71 67 80 90 94 89 86 86 86 83 80 79 77 69 71
139 133 120 138 141 125 122 118 122 126 120 115 110 106 98 93 86 101 103 93 94 95 95 90 88 88 94 95 97 94 92 93 97 91 91 89 90 100 94 98 103 96 81 80 83 86 85 83 84 84 86 89 91 93 93 94 90 84 76 64 47 25 20 340 79 72 76 75 71 64 78 80 72 67 67 73 70 70 68 72 72 70 68 73 79
146 134 133 143 137 127 116 123 126 122 118 113 110 110 107 98 97 89 95 83 86 89 95 102 108 106 98 98 100 99 95 92 82 97 103 102 95 89 77 78 80 83 89 90 89 91 87 87 86 87 89 90 92 95 92 89 83 79 72 57 28 345 350 43 61 62 64 68 56 63 69 72 69 71 77 79 81 75 76 71 69 68 70 72 72
146 139 131 146 143 139 115 118 111 104 108 114 113 111 109 107 96 96 101 87 91 100 111 100 97 92 93 104 105 102 102 96 88 91 107 100 86 87 97 98 98 92 92 93 93 90 86 83 84 85 88 93 89 87 88 83 82 76 62 42 21 349 349 33 52 75 79 69 63 67 68 74 76 79 78 74 68 74 74 72 71 69 68 71 75
145 141 144 144 138 136 141 114 105 109 107 106 103 98 110 114 119 115 111 101 89 73 102 115 111 108 108 111 107 103 97 93 83 88 105 104 99 87 80 87 97 93 90 87 83 82 83 83 84 87 88 87 93 90 88 86 80 75 60 40 13 4 2 339 102 88 69 71 82 68 70 81 88 88 81 76 79 76 75 74 74 77 88 94 92
149 152 151 139 140 149 144 151 126 116 108 108 109 94 84 72 86 85 82 89 95 64 54 87 115 124 117 110 104 96 100 94 92 65 52 102 100 89 77 82 103 106 109 97 88 82 80 83 84 84 86 84 86 92 88 84 78 69 59 36 20 13 358 336 67 58 61 49 55 88 86 92 79 90 86 83 79 73 74 70 71 70 62 62 66
156 162 156 150 149 156 152 151 143 151 141 123 111 110 90 87 88 90 90 86 87 81 75 82 91 99 101 102 100 83 81 85 79 64 53 55 102 106 102 64 75 72 78 83 85 82 80 82 85 84 83 83 80 82 77 75 70 58 55 44 39 8 350 327 37 65 75 76 71 66 86 104 116 117 96 74 88 89 79 75 95 91 79 81 74
164 174 164 161 159 159 158 153 163 161 151 157 147 122 113 100 99 98 96 96 91 92 93 95 102 106 106 104 96 89 80 85 76 71 58 60 81 75 75 75 77 94 87 90 89 90 90 86 88 86 87 88 88 78 74 71 61 57 37 53 91 313 332 326 59 87 73 78 109 112 102 55 82 62 87 115 69 67 79 97 85 102 97 71 70
178 178 175 171 166 167 163 162 167 160 163 152 150 146 123 116 107 94 95 100 96 95 98 98 104 109 111 115 112 113 117 101 107 90 77 65 60 75 79 87 92 89 88 91 93 93 92 92 93 99 96 95 88 85 83 83 79 65 48 357 280 250 223 88 71 80 118 57 68 103 108 54 104 103 86 86 106 100 83 61 59 72 83 93 93
172 186 194 178 175 175 170 169 173 161 157 154 155 147 125 125 115 94 98 102 108 109 110 116 114 119 129 130 153 157 134 136 165 120 113 81 69 71 74 69 71 70 80 82 93 97 96 100 101 99 87 92 89 76 63 64 64 48 354 337 313 253 292 113 204 170 198 134 17 115 115 150 132 118 129 154 114 94 93 140 81 63 91 123 116
177 187 194 189 181 182 177 179 172 166 159 165 156 143 146 176 162 160 166 142 135 141 161 163 160 141 141 164 180 148 144 153 110 140 130 136 100 86 81 77 66 61 62 86 102 99 97 96 89 87 116 129 157 161 129 94 54 14 335 308 262 242 234 220 239 98 291 300 35 120 160 137 163 189 241 101 119 133 135 150 131 158 122 16 45
184 187 192 190 190 183 188 182 172 172 166 165 173 166 160 180 175 170 164 188 164 193 191 176 186 166 180 195 196 142 132 125 104 68 78 70 94 95 86 77 72 77 71 65 68 96 93 81 87 136 147 209 221 231 124 164 155 188 249 239 249 277 164 286 269 267 294 337 84 117 222 177 188 191 149 150 157 128 146 141 185 83 95 194 135
188 192 187 192 188 188 190 191 179 176 178 176 179 183 177 185 183 177 182 184 172 199 199 186 193 180 190 208 184 114 155 111 100 118 123 140 113 104 104 101 102 103 119 111 102 87 103 95 110 180 205 220 228 189 139 194 178 186 205 238 267 360 305 229 254 248 251 64 131 116 298 197 194 141 163 170 124 142 161 172 93 66 286 221 107
186 188 190 192 193 194 188 192 185 183 189 183 183 193 185 190 188 180 193 192 178 190 193 194 191 187 199 214 130 133 187 137 162 164 195 167 158 159 163 180 166 158 210 194 181 147 220 156 168 215 228 213 276 251 286 186 256 245 265 313 329 319 293 300 278 272 259 181 131 167 276 297 200 197 197 209 187 194 185 192 194 191 216 281 243
178 189 195 194 193 196 193 188 188 188 190 193 190 189 183 199 193 187 193 208 196 186 201 188 186 192 197 214 159 167 193 157 165 175 198 173 175 177 186 184 160 153 201 195 199 161 220 184 198 217 238 234 259 297 297 326 323 295 283 82 307 288 278 299 295 284 280 226 145 176 234 285 283 227 201 208 227 227 221 222 260 164 165 181 244
181 196 195 201 193 198 196 193 191 190 190 202 199 189 200 199 200 195 194 204 205 207 192 203 195 182 198 194 196 182 190 179 174 186 194 187 191 191 186 179 168 183 195 214 181 199 224 211 218 223 247 267 267 292 271 298 310 308 305 319 276 289 292 283 285 280 286 275 141 177 215 219 266 248 207 198 214 228 229 227 235 202 217 234 191
187 196 198 201 196 199 198 198 196 192 192 199 203 201 199 206 204 198 208 203 208 212 215 195 194 187 197 200 209 196 193 194 181 188 194 202 198 194 194 178 185 193 193 214 179 213 209 232 231 236 244 242 241 246 248 238 251 258 276 273 266 271 266 275 278 273 268 273 214 180 218 231 240 263 226 220 226 229 232 239 240 251 236 222 212
199 198 199 202 192 202 202 202 200 199 197 198 206 204 207 209 205 204 210 207 215 217 219 211 199 205 197 215 209 213 202 201 191 193 196 201 196 193 199 196 192 196 187 209 199 205 215 223 221 225 224 233 224 218 238 247 249 241 245 249 250 254 265 272 275 273 268 269 273 188 201 238 258 255 248 245 241 227 230 235 242 235 240 232 226
201 202 201 202 196 196 205 207 205 203 203 203 207 206 209 211 214 207 209 205 220 222 222 225 225 199 202 208 215 227 217 210 195 203 199 197 201 187 205 210 195 201 190 209 201 213 213 211 225 228 230 238 246 238 236 239 239 255 244 248 240 253 252 252 255 259 259 261 260 208 187 206 239 250 246 246 224 228 221 235 245 235 242 225 220
199 200 202 200 198 191 203 208 209 206 203 206 206 208 206 215 218 218 209 207 219 222 222 229 234 232 222 196 221 230 234 224 213 203 204 201 201 199 207 205 206 201 198 207 196 214 217 221 212 222 223 229 234 232 228 251 242 238 237 238 243 245 251 257 257 254 258 254 252 255 184 205 222 249 255 244 233 237 236 236 237 230 224 238 221
204 201 200 200 196 199 203 207 210 207 211 209 208 214 210 211 218 222 219 204 213 227 226 225 226 236 234 220 222 224 233 230 225 212 219 206 209 208 208 210 210 202 198 205 191 207 222 224 214 233 253 245 245 237 231 247 246 241 237 231 234 243 244 240 242 246 248 253 257 249 247 195 205 232 249 255 244 241 243 240 239 242 240 239 236
206 202 198 197 202 198 204 205 208 205 209 213 209 212 215 212 214 223 221 209 205 219 229 224 223 232 235 235 228 228 225 235 219 222 217 223 219 216 214 213 214 208 198 197 193 201 217 220 212 218 231 239 243 239 229 244 252 249 238 229 233 233 235 241 237 237 238 238 243 253 255 253 233 203 226 245 252 244 245 242 244 243 246 238 237
197 198 198 199 198 200 200 204 205 209 204 214 215 214 217 214 208 219 226 219 218 213 220 228 227 229 224 226 226 228 227 231 242 221 222 226 224 220 222 217 216 213 199 185 196 207 220 215 222 212 227 230 233 232 229 227 235 240 235 230 231 234 234 231 233 236 234 235 238 239 242 248 245 234 212 225 239 245 244 249 254 244 243 248 252
192 194 199 200 197 196 196 206 196 210 202 210 211 217 219 218 212 213 220 224 224 223 217 218 224 225 228 222 224 232 234 232 232 240 232 235 228 225 219 223 217 203 198 200 207 216 216 221 217 227 230 230 242 242 236 238 235 235 235 229 231 235 235 237 236 235 235 237 239 242 243 242 243 243 231 225 220 231 239 237 243 250 247 246 249
196 195 195 198 200 194 193 203 197 209 208 211 214 215 219 223 223 216 218 219 224 227 228 219 218 222 221 226 221 228 238 235 238 236 243 239 235 232 227 223 211 191 199 207 218 224 215 220 224 222 235 238 241 243 236 239 243 245 236 236 238 235 239 234 236 240 238 236 237 241 241 241 243 244 248 242 241 222 221 231 236 239 250 251 246
197 196 194 194 200 196 192 199 201 203 212 212 216 218 219 222 225 221 221 218 220 224 230 234 223 215 191 215 214 217 220 232 241 242 242 242 239 236 239 236 213 202 208 215 218 228 228 216 224 219 227 243 241 245 245 243 244 247 248 244 242 247 247 244 240 240 243 243 244 243 243 243 243 241 243 247 247 253 224 215 226 231 238 245 249
200 202 198 195 198 197 195 199 201 201 206 213 210 212 222 225 225 225 221 221 217 226 227 224 225 213 197 210 213 206 205 215 228 235 241 237 234 230 233 217 206 214 218 219 225 225 228 220 223 220 222 234 245 246 244 240 244 253 258 254 247 244 248 250 253 251 247 244 242 243 244 247 241 238 236 236 239 240 245 221 221 230 235 238 242
202 202 202 199 198 200 199 197 203 203 204 208 214 215 218 224 227 230 230 228 223 220 227 233 229 226 220 214 200 206 210 225 232 235 238 227 225 229 230 217 213 219 222 223 224 222 222 221 225 230 226 230 239 247 253 249 238 245 254 259 259 250 248 245 254 255 249 247 248 246 249 245 246 241 239 237 236 236 236 244 236 221 231 234 237
204 203 204 203 204 202 202 202 199 201 203 207 207 213 216 219 224 225 232 234 235 229 223 225 228 229 226 226 223 215 219 216 226 231 230 242 245 232 219 220 216 215 216 220 219 212 210 217 226 230 234 230 228 240 229 238 271 270 270 266 256 253 246 242 241 237 232 240 244 244 243 245 243 241 240 240 240 238 237 238 240 243 236 232 232
205 205 202 204 205 202 199 204 196 195 199 203 206 208 210 215 221 226 229 230 230 231 230 227 226 227 225 219 211 214 211 213 214 217 223 218 223 224 223 225 215 217 223 223 217 219 218 219 225 219 228 231 225 222 227 215 267 272 253 251 249 239 240 236 239 235 230 229 230 237 236 238 239 237 236 237 239 236 238 236 239 239 240 245 234
202 203 204 204 204 205 205 201 196 194 199 201 202 208 211 216 219 221 227 233 226 222 234 234 226 220 223 227 223 225 218 221 217 211 217 222 232 232 235 238 232 212 212 224 231 229 232 224 214 225 212 224 238 208 204 165 233 243 271 272 258 247 228 222 230 232 231 224 227 232 233 234 233 233 233 234 234 233 233 234 234 236 237 239 243
199 202 204 201 202 204 207 203 198 197 197 198 204 207 210 218 223 226 222 231 239 251 245 239 234 233 229 228 233 227 212 216 205 207 216 218 223 225 229 211 185 196 222 231 233 234 226 222 215 220 229 218 234 229 208 184 236 236 246 288 279 297 263 226 221 234 227 223 225 226 230 233 234 232 231 233 232 231 230 229 231 233 237 238 242
201 196 196 199 197 202 202 201 200 197 195 196 203 215 219 220 221 237 237 241 250 251 251 258 252 234 231 229 234 236 230 233 225 211 215 221 223 225 225 218 218 193 209 224 230 230 220 220 214 213 221 243 207 227 208 201 213 215 262 212 279 313 297 261 265 240 214 225 218 224 221 226 228 230 230 230 233 235 231 225 230 233 236 240 240
196 192 187 190 194 195 194 195 197 195 193 187 189 204 221 220 220 220 238 248 250 249 239 239 238 244 257 258 255 243 239 236 229 219 218 224 228 234 236 235 235 230 218 223 228 224 211 210 207 215 218 228 233 228 216 206 216 212 233 263 246 244 230 274 295 275 243 232 223 225 219 223 220 221 223 230 233 234 234 233 231 234 238 238 237
192 190 189 192 185 181 183 182 187 191 193 185 181 187 200 209 207 212 215 222 230 228 232 243 246 241 240 236 245 255 259 252 248 242 225 208 227 223 226 233 234 234 232 234 253 270 249 230 218 218 226 226 241 229 243 202 211 216 224 235 243 262 283 299 24 290 164 242 261 228 226 220 220 222 224 227 225 225 222 233 239 243 239 237 237
142 129 151 176 173 169 171 171 175 178 181 178 178 180 194 206 213 216 221 226 231 238 244 248 255 259 260 256 262 262 257 265 272 272 270 237 215 223 226 229 231 228 221 227 234 234 238 231 224 209 213 205 205 240 241 238 202 228 225 236 249 258 265 272 256 297 290 264 227 252 228 223 221 222 229 226 225 226 226 227 235 240 242 240 238
133 157 160 165 165 154 151 159 160 160 161 172 174 180 190 199 205 212 219 224 230 242 240 240 248 257 267 282 279 273 280 277 277 282 282 279 280 276 266 250 238 238 227 211 212 217 227 228 218 218 222 221 219 223 237 232 216 233 206 230 240 250 253 254 257 259 271 291 285 255 243 227 235 236 235 233 229 227 231 231 236 237 239 235 236
119 135 136 142 147 145 145 150 148 151 152 171 171 178 189 188 195 201 210 225 233 244 262 270 305 319 302 291 274 280 280 275 268 271 268 275 279 274 270 265 259 256 243 240 246 245 239 237 227 227 226 226 220 219 223 232 234 244 178 227 230 233 232 235 248 245 255 271 275 270 266 243 236 244 239 235 235 233 230 233 236 236 236 237 236
101 110 110 115 124 134 139 143 136 143 142 152 168 170 178 186 188 196 207 208 217 241 266 276 289 317 284 282 286 283 279 276 277 279 288 280 275 277 275 274 273 270 271 271 260 239 228 226 226 223 220 220 218 227 232 238 237 244 239 228 208 219 247 252 239 234 240 239 262 279 273 283 276 253 222 241 240 238 233 230 236 240 240 241 236
97 99 103 105 104 107 111 106 97 99 125 140 155 157 166 180 189 196 201 216 224 241 248 249 252 257 258 266 265 272 274 276 282 284 279 279 279 281 280 278 282 285 275 273 272 268 258 248 243 240 236 232 235 233 235 241 243 245 243 240 246 232 231 237 233 210 222 240 250 264 271 244 253 278 261 235 241 240 233 226 235 240 238 240 237